[[{"header":{"parameterUnit":"m.s-1","parameterCategory":1,"la1":30.2991,"la2":30.254,"lo1":-89.0895,"lo2":-89.0444,"dy":0.0017,"dx":0.0017,"nx":28,"ny":28,"refTime":"2024-07-03T21:00:00:Z","depth":0,"parameterNumber":2,"parameterNumberName":"U-component_of_WINDS"},"data":[0,0,0,0,0,0,0,0,0,0,0,0,0,0,0,0,0,0,0,0,0,0,0,0,0,0,0,0,0,0,0,0,0,0,0,0,0,0,0,0,0,0,0,0,0,0,0,0,0,0,0,0,0,0,0,0,0,0,0.6998,0.6999,0,0.7113,0.7115,0.7116,0.7152,0.7152,0.7151,0.7151,0.7269,0.7273,0.7276,0,0,0,0,0,0,0,0,0,0,0,0,0,0.6808,0.6811,0.6998,0.6999,0.7001,0.7113,0.7115,0.7116,0.7152,0.7152,0.7151,0.715,0.7268,0.7272,0.7277,0,0,0,0,0,0,0,0,0,0,0,0,0,0.6903,0.6812,0.6998,0.7032,0.7037,0.7113,0.7115,0.7117,0.7153,0.7152,0.7151,0.715,0.7266,0.7272,0.7277,0.7327,0,0,0.7294,0.7296,0,0,0,0,0,0,0,0,0.6898,0.691,0.7026,0.703,0.7035,0.7118,0.7091,0.7187,0.7153,0.7109,0.7151,0.715,0.7219,0.7229,0.7252,0.7333,0.7338,0.7294,0.7298,0.73,0.7302,0,0,0,0,0,0,0,0.6891,0.6906,0.7044,0.7027,0.7033,0.7042,0.7055,0.711,0.7167,0.7112,0.7115,0.7128,0.7222,0.7247,0.7255,0.734,0.7294,0.7299,0.7303,0.7305,0.7467,0.7468,0,0,0,0,0,0,0.6879,0.69,0.704,0.7047,0.6963,0.7046,0.706,0.7092,0.7167,0.7177,0.7129,0.713,0.7238,0.7249,0.7259,0.7323,0.73,0.7305,0.7308,0.7466,0.7467,0.7468,0,0,0,0,0,0,0.6875,0.6891,0.7035,0.6974,0.6993,0.705,0.7085,0.7095,0.712,0.7179,0.719,0.7144,0.7238,0.7252,0.731,0.7327,0.7308,0.7313,0.7464,0.7466,0.7467,0.7449,0,0,0,0,0,0,0.6869,0.6889,0.6909,0.6975,0.6996,0.7084,0.7087,0.7097,0.7129,0.7131,0.7196,0.7206,0.7238,0.7302,0.7315,0.7334,0.7317,0.7463,0.7465,0.7467,0.7449,0.745,0.7451,0,0,0,0,0,0.6862,0.69,0.691,0.6927,0.7023,0.7085,0.7098,0.7133,0.713,0.7151,0.7189,0.7204,0.7323,0.7307,0.7323,0.7344,0.7462,0.7464,0.7467,0.7448,0.745,0.7451,0,0,0,0,0,0,0.6835,0.6909,0.6921,0.6981,0.7026,0.7091,0.7118,0.7134,0.7182,0.7181,0.7224,0.7238,0.7293,0.7325,0.7306,0.7396,0.7393,0.7399,0.7374,0.7376,0.7377,0.7368,0.7322,0,0,0,0,0,0.6836,0.6881,0.6943,0.699,0.7012,0.7061,0.7089,0.7113,0.7162,0.7181,0.7223,0.727,0.7318,0.7349,0.7396,0.7453,0.7468,0.7475,0.7477,0.7477,0.7482,0.7514,0.7518,0.7475,0.7475,0.7475,0,0,0.6839,0.6885,0.691,0.6986,0.7024,0.7068,0.7077,0.7124,0.7158,0.7188,0.7246,0.7278,0.7333,0.7391,0.7418,0.7419,0.7496,0.748,0.748,0.7485,0.7516,0.752,0.7524,0.7477,0.7477,0.7476,0,0,0.6867,0.6906,0.6949,0.6987,0.7044,0.7076,0.7086,0.7148,0.7171,0.7229,0.7252,0.7293,0.7375,0.7413,0.7442,0.7483,0.7499,0.7497,0.7504,0.7535,0.7538,0.7541,0.7555,0.756,0.7501,0.7501,0.7501,0,0.6863,0.6932,0.6969,0.7015,0.7047,0.7076,0.712,0.7155,0.7224,0.7245,0.7245,0.7347,0.7386,0.7453,0.7462,0.7486,0.7498,0.749,0.7534,0.7538,0.7542,0.7555,0.7561,0.7501,0.7501,0.7501,0.7501,0,0.6924,0.6971,0.6999,0.7065,0.71,0.7145,0.7188,0.7219,0.724,0.7271,0.733,0.7378,0.7435,0.7452,0.7473,0.7522,0.752,0.7526,0.7524,0.7544,0.7558,0.7564,0.75,0.75,0.75,0.75,0,0,0.6938,0.7024,0.7033,0.7063,0.7128,0.7165,0.7211,0.7266,0.7292,0.7339,0.7377,0.7445,0.7451,0.7485,0.751,0.7537,0.7565,0.754,0.7542,0.7543,0.7621,0.7616,0.7621,0.7576,0.7577,0.7578,0.7616,0,0.6974,0.7057,0.7091,0.7158,0.7201,0.7229,0.7269,0.7312,0.7343,0.7385,0.7419,0.7466,0.7471,0.7491,0.7519,0.7556,0.7582,0.7554,0.7612,0.7614,0.7597,0.7629,0.7623,0.7657,0.7622,0.7623,0.7624,0,0.7027,0.7073,0.7144,0.7203,0.7222,0.7257,0.7311,0.735,0.74,0.742,0.7457,0.7481,0.7529,0.7523,0.759,0.757,0.7596,0.7618,0.762,0.7627,0.762,0.7636,0.7669,0.7674,0.7633,0.7632,0.7631,0,0.7029,0.711,0.7163,0.7188,0.7257,0.7281,0.7311,0.736,0.7391,0.7438,0.7458,0.751,0.7538,0.7577,0.7613,0.7606,0.7676,0.7674,0.7694,0.7693,0.7708,0.7707,0.7745,0.7725,0.7725,0.7725,0.7725,0,0.7066,0.7108,0.7165,0.7197,0.7245,0.7284,0.733,0.7362,0.7405,0.7444,0.7471,0.7507,0.7553,0.7594,0.7623,0.7673,0.7686,0.7703,0.771,0.7701,0.7699,0.7718,0.7717,0.7726,0.7726,0.7725,0.7725,0,0.7077,0.7117,0.7176,0.7237,0.7253,0.7286,0.7338,0.737,0.7402,0.745,0.7464,0.7514,0.7564,0.7604,0.7669,0.7688,0.7741,0.7749,0.7724,0.7728,0.7746,0.7743,0.7799,0.7808,0.7781,0.7781,0.7781,0,0.7097,0.713,0.7194,0.7222,0.7252,0.7297,0.7328,0.7367,0.7399,0.7458,0.7483,0.7535,0.7578,0.7657,0.7699,0.7749,0.7758,0.7774,0.7766,0.7755,0.7758,0.7755,0.7758,0.7775,0.7775,0.7775,0.7775,0,0.7128,0.7146,0.7191,0.7242,0.7279,0.7321,0.7364,0.7385,0.7432,0.7466,0.7518,0.7552,0.7618,0.7669,0.7723,0.7754,0.7772,0.7777,0.7784,0.7775,0.7759,0.7767,0.7726,0.7776,0.7776,0.7776,0.7776,0.7776,0.7145,0.7175,0.7225,0.7273,0.731,0.7349,0.7382,0.7417,0.7461,0.7518,0.7539,0.7591,0.7639,0.7714,0.7745,0.7786,0.7788,0.7799,0.7801,0.7803,0.7802,0.7752,0.7796,0.7797,0.7797,0.7797,0.7797,0,0.7177,0.721,0.7255,0.7314,0.7351,0.7365,0.7413,0.7444,0.749,0.7533,0.7575,0.7634,0.7683,0.7729,0.778,0.7804,0.7814,0.7817,0.7815,0.7822,0.7798,0.7786,0.7808,0.7808,0.7808,0.7808,0.7808,0.7808,0.7198,0.725,0.7274,0.7344,0.7377,0.7428,0.7454,0.749,0.7525,0.7589,0.7631,0.766,0.7704,0.7759,0.7804,0.7817,0.7834,0.7834,0.7848,0.7825,0.7824,0.7822,0.7811,0.7838,0.7838,0.7869,0.7869,0.787]},{"header":{"parameterUnit":"m.s-1","parameterCategory":1,"la1":30.2991,"la2":30.254,"lo1":-89.0895,"lo2":-89.0444,"dy":0.0017,"dx":0.0017,"nx":28,"ny":28,"refTime":"2024-07-03T21:00:00:Z","depth":0,"parameterNumber":3,"parameterNumberName":"V-component_of_WINDS"},"data":[0,0,0,0,0,0,0,0,0,0,0,0,0,0,0,0,0,0,0,0,0,0,0,0,0,0,0,0,0,0,0,0,0,0,0,0,0,0,0,0,0,0,0,0,0,0,0,0,0,0,0,0,0,0,0,0,0,0,5.2318,5.2317,0,5.2289,5.2289,5.2288,5.2203,5.2201,5.22,5.2198,5.2171,5.2172,5.2173,0,0,0,0,0,0,0,0,0,0,0,0,0,5.2301,5.2302,5.2318,5.2317,5.2317,5.2289,5.2289,5.2288,5.2204,5.2201,5.2199,5.2197,5.217,5.2171,5.2173,0,0,0,0,0,0,0,0,0,0,0,0,0,5.2294,5.2302,5.2318,5.2271,5.2267,5.2289,5.2289,5.2288,5.2204,5.2201,5.2198,5.2196,5.217,5.2171,5.2173,5.2238,0,0,5.2177,5.2178,0,0,0,0,0,0,0,0,5.2295,5.2295,5.2279,5.2275,5.227,5.2247,5.2273,5.2272,5.2205,5.2228,5.2198,5.2194,5.2198,5.2197,5.2198,5.2237,5.2236,5.2178,5.2179,5.2179,5.218,0,0,0,0,0,0,0,5.2295,5.2296,5.2306,5.2278,5.2273,5.2253,5.2249,5.2272,5.2229,5.2226,5.2219,5.2217,5.2195,5.2197,5.2197,5.2235,5.2178,5.2179,5.218,5.218,5.2327,5.233,0,0,0,0,0,0,5.2302,5.2297,5.2307,5.2305,5.2275,5.2255,5.2251,5.2257,5.2229,5.2222,5.222,5.2213,5.2196,5.2195,5.2196,5.227,5.2179,5.2181,5.2181,5.2324,5.2328,5.2331,0,0,0,0,0,0,5.2302,5.2304,5.2308,5.2299,5.2298,5.2258,5.2266,5.2258,5.2259,5.2224,5.2216,5.2229,5.2193,5.2193,5.2228,5.2268,5.2181,5.2183,5.232,5.2325,5.2329,5.242,0,0,0,0,0,0,5.2302,5.2304,5.2328,5.2301,5.2299,5.2341,5.2269,5.2259,5.2262,5.2253,5.2231,5.2224,5.2191,5.2226,5.223,5.2269,5.2184,5.2317,5.2322,5.2328,5.2414,5.2427,5.2439,0,0,0,0,0,5.2302,5.2356,5.233,5.2332,5.2328,5.2344,5.2343,5.2303,5.2265,5.2289,5.2267,5.2225,5.2263,5.2231,5.2234,5.2274,5.2314,5.2321,5.2327,5.2408,5.2425,5.2439,0,0,0,0,0,0,5.239,5.2351,5.2322,5.2369,5.236,5.2329,5.2358,5.2322,5.2324,5.2317,5.2268,5.2263,5.2305,5.2293,5.2257,5.2336,5.2282,5.2289,5.2342,5.2358,5.237,5.2372,5.2185,0,0,0,0,0,5.2415,5.243,5.2395,5.244,5.2437,5.2399,5.2404,5.2374,5.2363,5.2359,5.2339,5.2331,5.2341,5.2349,5.2356,5.2412,5.2406,5.2441,5.2454,5.2464,5.2471,5.25,5.2515,5.2353,5.2353,5.2353,0,0,5.2466,5.2447,5.2459,5.2457,5.2447,5.2464,5.2396,5.2417,5.243,5.2363,5.2394,5.2379,5.2367,5.2412,5.2431,5.2403,5.2515,5.2473,5.2482,5.2483,5.2508,5.2524,5.2538,5.2357,5.2356,5.2356,0,0,5.2568,5.2556,5.2591,5.2582,5.2567,5.2541,5.255,5.2525,5.2512,5.2543,5.2493,5.2507,5.2526,5.2519,5.2518,5.2619,5.258,5.2623,5.2689,5.2718,5.2731,5.2742,5.2777,5.2791,5.263,5.263,5.263,0,5.2634,5.2657,5.2614,5.2638,5.2638,5.2578,5.2614,5.2608,5.2597,5.2599,5.2567,5.2589,5.2577,5.262,5.2644,5.2646,5.2654,5.2625,5.2732,5.2743,5.2753,5.2786,5.28,5.2635,5.2635,5.2634,5.2634,0,5.2739,5.2756,5.2787,5.2777,5.2781,5.2811,5.2772,5.2782,5.2752,5.273,5.2762,5.2745,5.2748,5.2756,5.2727,5.2795,5.2778,5.2741,5.2685,5.2774,5.2805,5.2817,5.2643,5.2641,5.2639,5.2638,0,0,5.2896,5.2861,5.2873,5.2867,5.2847,5.2859,5.2887,5.2889,5.2899,5.2893,5.2915,5.2933,5.2898,5.2897,5.2867,5.2892,5.2973,5.2851,5.285,5.2874,5.3047,5.3075,5.309,5.2947,5.295,5.2951,5.3047,0,5.2992,5.3036,5.2998,5.3049,5.3065,5.3008,5.3032,5.3023,5.3003,5.3014,5.2993,5.3006,5.2958,5.2957,5.298,5.2958,5.3007,5.2951,5.2968,5.2969,5.2972,5.3106,5.3136,5.3227,5.3059,5.3061,5.3063,0,5.311,5.3109,5.3162,5.3138,5.3143,5.3166,5.3165,5.3176,5.3164,5.3148,5.3148,5.3111,5.3137,5.3084,5.3119,5.3082,5.3087,5.3078,5.308,5.308,5.3021,5.3109,5.3256,5.3269,5.3081,5.308,5.3078,0,5.3218,5.3231,5.3264,5.3261,5.3234,5.3251,5.3241,5.3227,5.3231,5.323,5.3232,5.3236,5.3237,5.3241,5.3207,5.3171,5.3247,5.319,5.3235,5.3236,5.3253,5.3252,5.3401,5.3257,5.3257,5.3257,5.3256,0,5.3329,5.3364,5.3312,5.3333,5.337,5.3326,5.3365,5.3349,5.3337,5.3353,5.3306,5.3323,5.3276,5.3289,5.3262,5.3296,5.3297,5.3286,5.3278,5.329,5.3291,5.3292,5.3284,5.326,5.3259,5.3259,5.3258,0,5.3456,5.3423,5.3455,5.3427,5.3421,5.345,5.3426,5.3444,5.3422,5.3444,5.3447,5.3412,5.3424,5.339,5.3398,5.338,5.3428,5.3411,5.3432,5.3426,5.3472,5.3469,5.3627,5.3646,5.349,5.3492,5.3493,0,5.3529,5.3554,5.3529,5.3536,5.3528,5.3541,5.3545,5.3503,5.3509,5.3498,5.3518,5.3526,5.353,5.3553,5.3529,5.3534,5.3516,5.3572,5.3517,5.3528,5.3517,5.3515,5.3518,5.3583,5.3585,5.3586,5.3587,0,5.3662,5.3644,5.365,5.3651,5.3657,5.3656,5.3652,5.3661,5.3616,5.3626,5.3637,5.3641,5.3648,5.3657,5.3657,5.3648,5.3611,5.3605,5.3615,5.3627,5.3638,5.3633,5.3462,5.3601,5.36,5.3599,5.3598,5.3598,5.3763,5.3783,5.3768,5.3777,5.3769,5.3767,5.3782,5.3762,5.377,5.3773,5.3748,5.3765,5.3753,5.375,5.3744,5.3757,5.3732,5.3747,5.3751,5.3755,5.3763,5.3637,5.3757,5.3757,5.3756,5.3756,5.3756,0,5.3893,5.388,5.3889,5.3885,5.3892,5.3856,5.385,5.3859,5.3874,5.3866,5.3871,5.3885,5.3893,5.387,5.3876,5.3891,5.3874,5.3894,5.3892,5.389,5.3785,5.3775,5.3907,5.3907,5.3907,5.3907,5.3907,5.3907,5.3961,5.3993,5.3973,5.4001,5.3989,5.4004,5.4004,5.4001,5.3995,5.4012,5.4019,5.4003,5.3989,5.3993,5.4,5.3993,5.3997,5.4023,5.401,5.3912,5.3897,5.3883,5.3874,5.4024,5.4024,5.4113,5.4114,5.4115]}]]